Weather in Zyazikov-Yurt

Russia / Republic of Ingushetia     43°29′01″N   44°46′21″E
temp.,
°C
wind,
m/s
gust,
m/s
humid.,
%
clouds,
%
prec.,
mm/h
press.,
hPa
HPBL,
m
13 june, sun
sun1300:00+17ssw1177100 0.1 101111
03:00+17wsw2282100 0.1 101117
06:00+17nw229086 0.1 1012102
09:00+18wnw3488100 0.1 1012442
12:00+18wnw3489100 0.2 1012378
15:00+21nw227599 0.5 1012776
18:00+17wsw239598 2.7 101292
21:00+16s1192100 2.9 101311
14 june, mon
mon1400:00+15sw11910 0.0 101311
03:00+15wsw11911 0.0 101211
06:00+17wsw12881 0.0 101390
09:00+21nne117414 0.0 1012702
12:00+24ne326230 0.0 10111268
15:00+25ne325717 0.1 10101465
18:00+25ne22670 0.0 1010312
21:00+20ese00710 0.0 101011
15 june, tue
tue1500:00+19sse227460 0.0 100911
03:00+18se11770 0.0 100811
06:00+19ssw117642 0.0 100847
09:00+24e4664100 0.0 1007724
12:00+27ene44560 0.0 10071043
15:00+28nne22513 0.0 10081606
18:00+27nnw12620 0.0 1008106
21:00+23wnw1165100 0.0 100911
16 june, wed
wed1600:00+21ssw11760 0.0 100911
03:00+19s11810 0.0 100911
06:00+21se11780 0.0 100963
09:00+25ene46610 0.0 1008824
12:00+29ene34480 0.0 10081409
15:00+31n23420 0.0 10071976
18:00+27nw35660 0.0 1008200
21:00+19wnw47950 0.0 1011211
17 june, thu
thu1700:00+18w479751 0.0 1011253
03:00+18w4693100 0.0 1011327
06:00+19w349081 0.0 1010258
09:00+22nw327974 0.0 1008658
12:00+24nw227294 0.0 1007933
15:00+24w447243 0.1 1008682
18:00+23wsw4779100 0.0 1010377
21:00+20wsw37942 0.0 1012154